Regional Weather Roundup
Issued by NWS Raleigh/Durham, NC

Home | Current Version | Previous Version | Text Only | Print | Product List | Glossary On
Versions: 1 2 3 4 5 6 7 8 9 10 11 12 13 14 15 16 17 18 19 20 21 22 23 24 25 26 27
000
ASUS42 KRAH 251010
RWRRAH
NORTH CAROLINA WEATHER ROUNDUP
NATIONAL WEATHER SERVICE RALEIGH NC
600 AM EDT SUN SEP 25 2016

NOTE: "FAIR" INDICATES FEW OR NO CLOUDS BELOW 12,000 FEET WITH NO
SIGNIFICANT WEATHER AND/OR OBSTRUCTIONS TO VISIBILITY.

NCZ001-053-055-056-065-067-251100-
WESTERN NORTH CAROLINA

CITY           SKY/WX    TMP DP  RH WIND       PRES   REMARKS
ASHEVILLE      CLEAR     59  56  89 CALM      30.18S
JEFFERSON      CLEAR     57  56  97 CALM      30.22R FOG
MORGANTON      CLEAR     66  64  94 NE5       30.17S
HICKORY        CLEAR     65  64  97 CALM      30.12R
RUTHERFORDTON  CLEAR     64  64  99 W5        30.12R
MOUNT AIRY     CLOUDY    70  67  90 NE8       30.16R
BOONE          CLEAR     53  53 100 CALM      30.23S FOG
$$

NCZ021-022-025-041-071-084-088-251100-
CENTRAL NORTH CAROLINA

CITY           SKY/WX    TMP DP  RH WIND       PRES   REMARKS
CHARLOTTE      PTCLDY    66  63  90 N5        30.10R
GREENSBORO     CLOUDY    70  69  97 NE9       30.13R FOG
WINSTON-SALEM  CLOUDY    70  67  90 E7        30.14R FOG
RALEIGH-DURHAM CLOUDY    72  68  87 E8        30.12R
FORT BRAGG     CLOUDY    71  70  96 E6        30.08R
FAYETTEVILLE   FOG       70  69  97 NE5       30.08S VSB 1/2
BURLINGTON     CLOUDY    72  71  97 N7        30.12R FOG
LAURINBURG     MOCLDY    69  68  96 NE3       30.09R FOG
$$

NCZ011-015-027-028-043-044-047-080-103-251100-
NORTHEASTERN NORTH CAROLINA

CITY           SKY/WX    TMP DP  RH WIND       PRES   REMARKS
ROCKY MT-WILSO CLOUDY    70  68  93 NE5       30.12R
GREENVILLE     CLOUDY    72  70  94 NE3       30.12R
WASHINGTON     MOCLDY    70  67  90 NE7       30.11R
ELIZABETH CITY CLOUDY    70  65  84 NE13      30.12R
MANTEO         CLOUDY    71  65  80 NE12      30.10R
CAPE HATTERAS  CLOUDY    74  68  81 VRB6      30.07R
$$

NCZ078-087-090-091-093-098-101-251100-
SOUTHEASTERN NORTH CAROLINA

CITY           SKY/WX    TMP DP  RH WIND       PRES   REMARKS
LUMBERTON      CLEAR     69  67  93 N3        30.07R
GOLDSBORO      PTCLDY    72  72 100 E6        30.08R
KINSTON        CLOUDY    73  70  91 N5        30.11R
KENANSVILLE    MOCLDY    70  70 100 CALM      30.10R FOG
NEW BERN       CLOUDY    73  68  84 NE7       30.10R
CHERRY POINT   CLOUDY    74  68  81 NE9       30.09R
BEAUFORT       CLOUDY    74  71  91 N8        30.08R
JACKSONVILLE   PTCLDY    72  69  90 N5        30.07R
WILMINGTON     CLEAR     69  69 100 NE5       30.07R FOG
$$





USA.gov is the U.S. government's official web portal to all federal, state and local government web resources and services.